Waarnemingen

Advertentie
Mijn weer
Lille, Frankrijk (7015): temperatuur & dauwpunt: 26.05.2020 04:00:00 - 01.06.2020 04:00:00 (CEST)Lille, Frankrijk (7015): temperatuur 5cm: 26.05.2020 04:00:00 - 01.06.2020 04:00:00 (CEST)Lille, Frankrijk (7015): temperatuur -20cm & temperatuur -100cm: 26.05.2020 04:00:00 - 01.06.2020 04:00:00 (CEST)Lille, Frankrijk (7015): windsnelheid & windstoten: 26.05.2020 04:00:00 - 01.06.2020 04:00:00 (CEST)Lille, Frankrijk (7015): windrichting: 26.05.2020 04:00:00 - 01.06.2020 04:00:00 (CEST)Lille, Frankrijk (7015): luchtdruk: 26.05.2020 04:00:00 - 01.06.2020 04:00:00 (CEST)Lille, Frankrijk (7015): zicht: 26.05.2020 04:00:00 - 01.06.2020 04:00:00 (CEST)Lille, Frankrijk (7015): neerslag: 26.05.2020 04:00:00 - 01.06.2020 04:00:00 (CEST)
Datum & Tijd tt [°C] td [°C] tt 5cm [°C] tt -20cm [°C] tt -100cm [°C] ff [km/u] ff [kn] fx [km/u] fx [kn] dd ppp [hPa] vv [km] rr [mm]
01.06.2020 04:00:00 14,5 5,6 13,7 19,1 15,4 11 6 18 10 NO 1021,1 60 0,0
01.06.2020 03:00:00 15,3 5,5 14,5 19,5 15,4 13 7 19 10 NNO 1020,9 60 0,0
01.06.2020 02:00:00 16,0 5,6 15,3 19,9 15,4 14 8 21 12 NO 1021,0 60 0,0
01.06.2020 01:00:00 16,7 5,3 16,0 20,4 15,4 15 8 20 11 NO 1021,0 46 0,0
01.06.2020 00:00:00 17,2 4,8 16,4 21,0 15,4 13 7 19 10 NNO 1020,9 60 0,0
31.05.2020 23:00:00 18,1 4,3 17,3 21,7 15,4 12 7 18 10 NNO 1020,7 60 0,0
31.05.2020 22:00:00 19,4 3,9 18,5 22,4 15,4 10 5 20 11 NO 1020,5 60 0,0
31.05.2020 21:00:00 20,8 3,5 20,8 23,1 15,4 13 7 29 16 ONO 1020,0 57 0,0
31.05.2020 20:00:00 21,7 2,9 23,2 23,6 15,3 19 11 34 19 NO 1019,7 46 0,0
31.05.2020 19:00:00 22,7 2,2 26,1 23,8 15,3 19 10 41 22 ONO 1019,7 29 0,0
31.05.2020 18:00:00 23,1 3,6 27,7 23,6 15,3 18 10 36 19 NO 1019,8 25 0,0
31.05.2020 17:00:00 23,0 5,0 28,3 23,1 15,3 21 11 39 21 ONO 1020,0 24 0,0
31.05.2020 16:00:00 22,4 3,5 28,0 22,4 15,3 21 11 40 22 NO 1020,4 23 0,0
31.05.2020 15:00:00 22,2 3,8 25,2 21,5 15,3 21 11 39 21 ONO 1020,6 27 0,0
31.05.2020 14:00:00 22,0 4,5 26,8 20,6 15,3 22 12 41 22 NO 1020,8 31 0,0
31.05.2020 13:00:00 21,6 4,6 27,4 19,7 15,3 23 13 42 23 NNO 1021,1 36 0,0
31.05.2020 12:00:00 21,4 4,5 22,8 18,9 15,3 22 12 39 21 NO 1021,5 24 0,0
31.05.2020 11:00:00 20,6 4,2 26,1 18,2 15,2 19 11 41 22 ONO 1021,8 33 0,0
31.05.2020 10:00:00 19,5 5,2 23,0 17,8 15,3 13 7 22 12 NO 1022,1 43 0,0
31.05.2020 09:00:00 18,1 5,3 19,8 17,7 15,3 9 5 18 10 ONO 1022,0 53 0,0
31.05.2020 08:00:00 16,0 5,3 14,9 17,8 15,3 10 6 20 11 ONO 1021,9 51 0,0
31.05.2020 07:00:00 14,4 4,4 12,6 18,1 15,2 16 9 23 13 NO 1021,9 60 0,0
31.05.2020 06:00:00 13,4 4,3 11,9 18,5 15,3 10 5 16 8 NO 1021,5 60 0,0
31.05.2020 05:00:00 14,1 4,4 12,9 18,9 15,2 11 6 16 8 NO 1021,3 60 0,0
31.05.2020 04:00:00 15,1 4,5 14,1 19,3 15,2 10 6 19 10 NO 1021,1 60 0,0
31.05.2020 03:00:00 16,2 4,2 15,1 19,8 15,3 15 8 19 11 NO 1020,9 60 0,0
31.05.2020 02:00:00 16,9 4,2 16,0 20,2 15,2 14 8 21 11 NO 1020,9 60 0,0
31.05.2020 01:00:00 17,9 4,8 16,9 20,8 15,2 12 7 17 9 NO 1020,9 60 0,0
31.05.2020 00:00:00 18,6 5,1 17,5 21,5 15,2 13 7 16 9 ONO 1020,6 60 0,0
30.05.2020 23:00:00 19,7 5,7 18,7 22,1 15,2 11 6 16 9 NO 1020,4 60 0,0
30.05.2020 22:00:00 20,9 4,9 19,8 22,9 15,2 10 5 21 11 NO 1019,9 60 0,0
30.05.2020 21:00:00 22,5 4,0 23,2 23,5 15,2 15 8 33 18 NO 1019,5 40 0,0
30.05.2020 20:00:00 23,6 4,0 26,0 24,1 15,2 19 11 32 18 NO 1019,4 19 0,0
30.05.2020 19:00:00 24,4 3,6 28,4 24,2 15,2 21 11 47 25 NO 1019,6 32 0,0
30.05.2020 18:00:00 24,6 3,8 29,7 24,0 15,2 18 10 39 21 NO 1019,9 35 0,0
30.05.2020 17:00:00 24,3 3,6 29,7 23,5 15,1 20 11 50 27 ONO 1020,3 26 0,0
30.05.2020 16:00:00 24,1 2,3 30,0 22,7 15,1 18 10 37 20 ONO 1020,9 23 0,0
30.05.2020 15:00:00 23,8 3,7 30,0 21,7 15,1 20 11 40 22 NO 1021,1 23 0,0
30.05.2020 14:00:00 23,6 4,0 29,8 20,6 15,1 18 10 48 26 NO 1021,6 23 0,0
30.05.2020 13:00:00 22,9 4,4 29,0 19,5 15,1 15 8 39 21 O 1021,9 24 0,0
30.05.2020 12:00:00 22,2 4,7 27,1 18,4 15,1 11 6 25 13 O 1022,2 28 0,0
30.05.2020 11:00:00 20,4 6,7 25,5 17,7 15,1 13 7 29 16 NO 1022,7 31 0,0
30.05.2020 10:00:00 18,6 7,1 22,7 17,2 15,1 10 6 18 10 NO 1022,8 31 0,0
30.05.2020 09:00:00 16,9 7,0 19,7 17,0 15,1 10 5 16 9 ONO 1022,7 34 0,0
30.05.2020 08:00:00 15,0 6,8 14,2 17,2 15,1 9 5 14 8 NO 1022,8 34 0,0
30.05.2020 07:00:00 13,4 6,9 12,0 17,4 15,1 10 5 16 9 NNO 1022,7 25 0,0
30.05.2020 06:00:00 12,5 7,6 10,4 17,8 15,1 9 5 22 12 NO 1022,7 23 0,0
30.05.2020 05:00:00 13,1 7,7 12,5 18,1 15,1 17 9 23 13 NNO 1022,7 34 0,0
30.05.2020 04:00:00 13,5 8,1 12,9 18,5 15,1 14 7 20 11 NNO 1023,0 32 0,0
30.05.2020 03:00:00 14,3 8,5 13,7 19,0 15,1 13 7 22 12 NNO 1023,1 35 0,0
30.05.2020 02:00:00 14,8 8,7 14,0 19,4 15,1 14 7 25 13 NNO 1023,2 39 0,0
30.05.2020 01:00:00 15,4 8,6 14,5 20,0 15,1 18 10 25 14 NNO 1023,3 43 0,0
30.05.2020 00:00:00 15,8 7,8 14,7 20,6 15,1 16 9 27 15 N 1023,3 56 0,0
29.05.2020 23:00:00 16,9 7,0 15,9 21,3 15,1 16 9 30 16 N 1023,2 60 0,0
29.05.2020 22:00:00 18,3 6,8 17,5 22,0 15,1 20 11 34 18 NNO 1023,1 60 0,0
29.05.2020 21:00:00 20,7 5,1 21,4 22,7 15,1 23 12 34 19 NNO 1022,7 24 0,0
29.05.2020 20:00:00 22,4 2,5 24,9 23,2 15,1 17 9 31 17 ONO 1022,9 36 0,0
29.05.2020 19:00:00 22,8 2,8 27,1 23,3 15,0 14 7 27 14 ONO 1023,3 34 0,0
29.05.2020 18:00:00 23,2 3,2 28,3 23,1 15,0 15 8 29 16 NO 1023,7 30 0,0
29.05.2020 17:00:00 23,2 2,6 29,0 22,6 15,0 17 9 34 19 ONO 1024,1 20 0,0
29.05.2020 16:00:00 22,6 3,2 29,1 21,8 15,0 16 8 34 19 ONO 1024,7 23 0,0
29.05.2020 15:00:00 22,4 2,5 28,8 20,8 15,0 19 10 38 21 ONO 1025,4 23 0,0
29.05.2020 14:00:00 22,1 3,7 28,1 19,8 15,0 16 9 34 18 NO 1026,2 20 0,0
29.05.2020 13:00:00 20,9 2,7 27,1 18,7 15,0 16 9 31 17 ONO 1027,0 25 0,0
29.05.2020 12:00:00 20,4 5,2 25,4 17,7 15,0 14 8 27 15 ONO 1027,6 25 0,0
29.05.2020 11:00:00 19,1 5,9 23,4 16,9 15,0 15 8 24 13 NO 1028,0 27 0,0
29.05.2020 10:00:00 17,1 6,0 19,9 16,5 15,0 13 7 26 14 NO 1028,2 20 0,0
29.05.2020 09:00:00 14,8 5,3 16,8 16,4 15,0 15 8 25 13 ONO 1028,5 34 0,0
29.05.2020 08:00:00 12,9 4,8 12,8 16,5 15,0 14 7 23 12 NO 1028,5 45 0,0
29.05.2020 07:00:00 11,7 4,4 10,6 16,8 15,0 12 6 21 11 NO 1028,7 31 0,0
29.05.2020 06:00:00 11,1 4,3 10,6 17,2 15,0 13 7 19 11 NNO 1028,8 59 0,0
29.05.2020 05:00:00 11,5 4,5 10,9 17,6 15,0 10 6 23 12 NNO 1028,9 60 0,0
29.05.2020 04:00:00 12,5 5,2 11,9 18,0 15,0 16 9 27 14 NNO 1028,8 60 0,0
29.05.2020 03:00:00 13,4 6,0 12,7 18,4 14,9 16 8 26 14 NO 1029,0 60 0,0
29.05.2020 02:00:00 14,3 7,1 13,7 18,8 15,0 16 9 27 14 NNO 1029,3 60 0,0
29.05.2020 01:00:00 15,0 7,3 14,4 19,3 14,9 17 9 32 17 NNO 1029,4 59 0,0
29.05.2020 00:00:00 15,7 7,5 15,0 19,8 14,9 17 9 29 16 NNO 1029,4 60 0,0
28.05.2020 23:00:00 16,9 7,3 16,0 20,5 14,9 18 10 29 16 NNO 1029,5 60 0,0
28.05.2020 22:00:00 18,1 6,0 17,3 21,1 14,9 15 8 22 12 NNO 1029,2 60 0,0
28.05.2020 21:00:00 20,1 2,4 20,8 21,7 14,9 14 7 34 18 ONO 1029,1 54 0,0
28.05.2020 20:00:00 21,2 2,9 23,4 22,1 14,9 21 12 34 18 NO 1029,1 28 0,0
28.05.2020 19:00:00 21,5 3,2 25,8 22,2 14,9 22 12 40 22 NO 1029,4 24 0,0
28.05.2020 18:00:00 21,8 3,4 26,7 22,0 14,9 23 12 39 21 NO 1029,7 21 0,0
28.05.2020 17:00:00 21,8 3,4 27,5 21,5 14,8 23 12 40 22 ONO 1030,2 19 0,0
28.05.2020 16:00:00 21,5 3,6 27,2 20,8 14,8 23 12 41 22 NO 1030,8 18 0,0
28.05.2020 15:00:00 20,9 2,7 27,2 20,0 14,8 23 12 41 22 ONO 1031,4 17 0,0
28.05.2020 14:00:00 20,7 3,4 25,9 19,0 14,8 22 12 40 22 ONO 1032,1 15 0,0
28.05.2020 13:00:00 19,3 3,8 24,4 18,1 14,8 24 13 42 23 NO 1032,5 14 0,0
28.05.2020 12:00:00 18,8 5,3 22,9 17,3 14,8 21 12 41 22 NO 1033,1 15 0,0
28.05.2020 11:00:00 17,0 4,6 20,6 16,7 14,8 23 12 39 21 ONO 1033,6 16 0,0
28.05.2020 10:00:00 15,4 5,9 18,3 16,4 14,8 26 14 36 20 NO 1033,8 17 0,0
28.05.2020 09:00:00 13,3 5,4 15,7 16,4 14,8 22 12 36 19 NO 1034,1 19 0,0
28.05.2020 08:00:00 12,0 5,4 12,7 16,6 14,8 19 10 35 19 NO 1034,0 22 0,0
28.05.2020 07:00:00 11,4 6,1 10,7 16,9 14,8 21 11 31 17 NNO 1033,8 23 0,0
28.05.2020 06:00:00 11,1 7,6 10,7 17,2 14,8 18 10 29 16 NNO 1033,7 26 0,0
28.05.2020 05:00:00 11,7 9,1 11,0 17,5 14,7 16 9 29 16 NNO 1033,5 16 0,0
28.05.2020 04:00:00 11,6 9,7 10,7 18,0 14,8 16 9 24 13 N 1033,5 11 0,0
28.05.2020 03:00:00 11,5 9,2 10,7 18,4 14,8 14 8 31 17 N 1033,9 15 0,0
28.05.2020 02:00:00 11,7 8,9 11,1 18,9 14,8 18 10 31 17 N 1034,2 21 0,0
28.05.2020 01:00:00 12,7 7,6 12,0 19,5 14,7 20 11 31 17 N 1034,2 46 0,0
28.05.2020 00:00:00 14,1 6,2 13,2 20,1 14,7 15 8 32 18 N 1034,2 60 0,0
27.05.2020 23:00:00 15,4 6,1 14,3 20,8 14,7 13 7 31 17 N 1034,1 60 0,0
27.05.2020 22:00:00 16,6 7,8 16,0 21,5 14,7 18 10 37 20 N 1034,0 60 0,0
27.05.2020 21:00:00 18,1 7,8 18,4 22,3 14,7 20 11 41 22 N 1033,8 25 0,0
27.05.2020 20:00:00 20,0 7,4 23,0 22,7 14,7 27 15 38 20 NNO 1033,3 29 0,0
27.05.2020 19:00:00 21,5 7,7 26,0 23,0 14,7 22 12 40 22 NNO 1033,1 27 0,0
27.05.2020 18:00:00 22,2 7,6 27,5 22,9 14,7 23 12 41 22 NNO 1033,3 27 0,0
27.05.2020 17:00:00 22,6 8,3 29,0 22,6 14,7 23 13 44 24 N 1033,4 28 0,0
27.05.2020 16:00:00 23,1 8,0 29,8 21,9 14,7 25 14 42 23 N 1033,5 31 0,0
27.05.2020 15:00:00 23,6 8,8 30,7 21,1 14,6 22 12 38 21 N 1033,4 36 0,0
27.05.2020 14:00:00 23,1 8,0 29,8 20,1 14,6 20 11 39 21 N 1033,8 39 0,0
27.05.2020 13:00:00 22,7 8,0 29,6 19,1 14,6 19 10 31 17 N 1034,1 46 0,0
27.05.2020 12:00:00 21,4 7,2 28,9 18,2 14,6 12 7 26 14 N 1034,4 47 0,0
27.05.2020 11:00:00 20,7 6,6 26,8 17,4 14,6 8 5 22 12 N 1034,6 60 0,0
27.05.2020 10:00:00 19,1 6,2 24,7 17,0 14,6 10 5 21 11 NNO 1034,7 27 0,0
27.05.2020 09:00:00 17,5 7,2 20,3 16,8 14,6 12 6 19 10 N 1035,0 17 0,0
27.05.2020 08:00:00 15,2 8,0 14,4 16,8 14,6 10 6 18 10 N 1035,0 15 0,0
27.05.2020 07:00:00 14,1 7,6 12,9 17,0 14,6 8 5 13 7 NNW 1034,8 28 0,0
27.05.2020 06:00:00 12,8 7,7 9,1 17,2 14,6 6 3 9 5 NW 1034,7 22 0,0
27.05.2020 05:00:00 12,0 6,7 7,6 17,7 14,6 8 4 10 5 WNW 1034,5 17 0,0
27.05.2020 04:00:00 13,2 6,5 9,1 18,1 14,6 0 0 11 6 N 1034,6 38 0,0
27.05.2020 03:00:00 14,2 6,5 12,4 18,5 14,6 4 2 17 9 ONO 1034,5 39 0,0
27.05.2020 02:00:00 15,2 6,7 14,0 19,0 14,7 14 7 21 11 N 1034,7 50 0,0
27.05.2020 01:00:00 16,1 7,3 14,6 19,5 14,6 12 7 20 11 N 1034,9 51 0,0
27.05.2020 00:00:00 16,7 6,8 14,0 20,1 14,6 10 5 17 9 N 1034,8 60 0,0
26.05.2020 23:00:00 18,2 6,1 16,0 20,7 14,6 12 6 21 11 NNO 1034,8 60 0,0
26.05.2020 22:00:00 19,5 6,6 18,1 21,4 14,6 14 7 28 15 N 1034,5 60 0,0
26.05.2020 21:00:00 21,3 6,8 21,2 21,9 14,6 18 10 31 17 N 1034,1 35 0,0
26.05.2020 20:00:00 22,7 6,4 24,8 22,3 14,5 18 10 33 18 N 1033,9 42 0,0
26.05.2020 19:00:00 24,1 6,4 28,5 22,4 14,5 21 11 35 19 N 1033,7 31 0,0
26.05.2020 18:00:00 24,8 7,0 26,7 22,2 14,6 20 11 36 19 N 1033,8 33 0,0
26.05.2020 17:00:00 25,4 8,4 26,2 21,8 14,6 19 10 33 18 N 1033,8 39 0,0
26.05.2020 16:00:00 24,6 8,1 28,2 21,3 14,5 18 10 29 16 NNO 1034,2 38 0,0
26.05.2020 15:00:00 24,2 8,2 27,2 20,5 14,5 11 6 33 18 N 1034,4 48 0,0
26.05.2020 14:00:00 23,8 8,6 25,9 19,7 14,5 10 5 29 16 NNO 1035,1 37 0,0
26.05.2020 13:00:00 23,9 8,3 30,5 18,6 14,5 9 5 22 12 NO 1035,2 20 0,0
26.05.2020 12:00:00 22,9 8,2 28,8 17,4 14,5 5 3 14 8 O 1035,5 44 0,0
26.05.2020 11:00:00 21,5 8,7 25,8 16,5 14,5 5 3 15 8 NO 1035,7 37 0,0
26.05.2020 10:00:00 19,0 10,5 24,2 15,9 14,5 3 2 9 5 O 1035,9 19 0,0
26.05.2020 09:00:00 17,3 9,9 20,8 15,6 14,5 3 1 7 4 ZO 1035,7 19 0,0
26.05.2020 08:00:00 13,3 9,4 11,7 15,6 14,5 0 0 5 3 N 1035,8 19 0,0
26.05.2020 07:00:00 11,0 8,6 5,9 15,9 14,5 2 1 8 4 OZO 1035,7 17 0,0
26.05.2020 06:00:00 9,4 7,5 4,7 16,3 14,5 6 3 6 4 WNW 1035,4 7 0,0
26.05.2020 05:00:00 10,0 7,8 5,0 16,8 14,5 3 2 9 5 NNW 1035,1 6 0,0
26.05.2020 04:00:00 10,4 7,6 5,6 17,3 14,5 2 1 6 4 NNW 1035,1 24 0,0

tt = temperatuur
td = dauwpunt
tt 5cm = temperatuur 5cm
tt -20cm = temperatuur -20cm
tt -100cm = temperatuur -100cm
ff = windsnelheid
fx = windstoten
dd = windrichting
ppp = luchtdruk
vv = zicht
rr = neerslag

Weerstations in de omgeving